Maimiti — PBIJ — position and weather

sailwx.info

Track history (hours):
 
Tides and Currents Weather Stations Pressure Air Temp Water Temp Dewpoint Dewpoint Depression Visibility Wind Speed Wind Dir Waves Ship Positions

Maimiti

Last reported at 2014-Jul-31 19:13 UTC. Time now 2014-Aug-01 11:58 UTC.
Position N 38°40' W 009°50'.

Length 87 m; draft 4.7 m.

Type: Cargo ship. MMSI: 244312000.

Date/timePositionNaut miles runAvg speedWind from/ knotsBaromVisibWave heightAir tempDewpointWater temp
2014-Jul-31 19:13N 38°40' W 009°50'8310.8
2014-Jul-31 11:33N 37°19' W 009°27'2210.9
2014-Jul-31 09:30N 36°58' W 009°20'1110.7
2014-Jul-31 08:31N 36°49' W 009°13'6610.8
2014-Jul-31 02:24N 36°26' W 007°55'2111.2
2014-Jul-31 00:30N 36°20' W 007°30'1210.8
2014-Jul-30 23:27N 36°16' W 007°17'  
2014-Jul-28 19:24N 37°22' E 003°33'45510.6
2014-Jul-27 00:31N 36°58' E 013°02'3210.5
2014-Jul-26 21:32N 36°48' E 013°40'2110.6
2014-Jul-26 19:33N 36°43' E 014°05'1310.7
2014-Jul-26 18:19N 36°40' E 014°21'810.7
2014-Jul-26 17:33N 36°38' E 014°31'42710.1
2014-Jul-24 23:26N 36°28' E 023°22'1010.9
2014-Jul-24 22:32N 36°34' E 023°32'1410.9
2014-Jul-24 21:13N 36°41' E 023°47'2810.6
2014-Jul-24 18:33N 36°56' E 024°17'2110.4
2014-Jul-24 16:32N 37°08' E 024°39'1010.7
2014-Jul-24 15:33N 37°15' E 024°49'1111.3
2014-Jul-24 14:33N 37°23' E 024°58'2 2.1
2014-Jul-24 13:33N 37°25' E 024°58'0 0.1
2014-Jul-24 12:32N 37°25' E 024°58'0 0.1
2014-Jul-24 11:33N 37°25' E 024°58'1 1.0
2014-Jul-24 10:32N 37°26' E 024°59'10 9.8
2014-Jul-24 09:33N 37°29' E 025°11'273 9.4
2014-Jul-23 04:33N 40°57' E 028°57'  
Track history (hours):
 
Tides and Currents Weather Stations Pressure Air Temp Water Temp Dewpoint Dewpoint Depression Visibility Wind Speed Wind Dir Waves Ship Positions

Maimiti

Last reported at 2014-Jul-31 19:13 UTC. Time now 2014-Aug-01 11:58 UTC.
Position N 38°40' W 009°50'.

Length 87 m; draft 4.7 m.

Type: Cargo ship. MMSI: 244312000.

Date/timePositionNaut miles runAvg speedWind from/ knotsBaromVisibWave heightAir tempDewpointWater temp
2014-Jul-31 19:13N 38°40' W 009°50'8310.8
2014-Jul-31 11:33N 37°19' W 009°27'2210.9
2014-Jul-31 09:30N 36°58' W 009°20'1110.7
2014-Jul-31 08:31N 36°49' W 009°13'6610.8
2014-Jul-31 02:24N 36°26' W 007°55'2111.2
2014-Jul-31 00:30N 36°20' W 007°30'1210.8
2014-Jul-30 23:27N 36°16' W 007°17'  
2014-Jul-28 19:24N 37°22' E 003°33'45510.6
2014-Jul-27 00:31N 36°58' E 013°02'3210.5
2014-Jul-26 21:32N 36°48' E 013°40'2110.6
2014-Jul-26 19:33N 36°43' E 014°05'1310.7
2014-Jul-26 18:19N 36°40' E 014°21'810.7
2014-Jul-26 17:33N 36°38' E 014°31'42710.1
2014-Jul-24 23:26N 36°28' E 023°22'1010.9
2014-Jul-24 22:32N 36°34' E 023°32'1410.9
2014-Jul-24 21:13N 36°41' E 023°47'2810.6
2014-Jul-24 18:33N 36°56' E 024°17'2110.4
2014-Jul-24 16:32N 37°08' E 024°39'1010.7
2014-Jul-24 15:33N 37°15' E 024°49'1111.3
2014-Jul-24 14:33N 37°23' E 024°58'2 2.1
2014-Jul-24 13:33N 37°25' E 024°58'0 0.1
2014-Jul-24 12:32N 37°25' E 024°58'0 0.1
2014-Jul-24 11:33N 37°25' E 024°58'1 1.0
2014-Jul-24 10:32N 37°26' E 024°59'10 9.8
2014-Jul-24 09:33N 37°29' E 025°11'273 9.4
2014-Jul-23 04:33N 40°57' E 028°57'  

Dump ship's entire track history